Lid_Strength_Index
2 3 5 6 9 9 8 7 5 7 6 4 4 5 5 4 5 7 1 0 -0 -0 -1 -1 -1 -1 -1 -1 -1 -1 -1 -1 -1 -1 -1 -1 -1 -1 -1 -1 -1 -1 -1 -1 -1 -2 -2 -2 -2
4 4 6 7 9 10 9 6 7 5 4 3 3 4 6 5 2 2 2 0 -0 -0 -1 -1 -1 -1 -1 -1 -1 -1 -1 -1 -1 -1 -1 -1 -1 -1 -1 -1 -1 -1 -1 -1 -2 -2 -2 -2 -2
2 4 8 8 9 10 9 6 6 5 4 4 4 3 4 4 2 2 0 0 -0 -0 -1 -1 -1 -1 -1 -1 -1 -1 -1 -1 -1 -1 -1 -1 -1 -1 -1 -1 -1 -1 -1 -1 -2 -2 -2 -2 -1
2 4 7 10 10 8 7 5 5 6 5 5 4 5 3 2 2 1 -0 -0 -0 -0 -1 -1 -1 -1 -1 -1 -1 -1 -1 -1 -1 -1 -1 -1 -1 -1 -1 -1 -1 -1 -1 -2 -2 -2 -2 -2 -2
1 4 8 10 10 8 6 5 6 7 7 5 4 5 4 2 0 0 0 -0 0 -0 -1 -1 -1 -1 -1 -1 -1 -1 -1 -1 -1 -1 -1 -1 -1 -1 -1 -1 -1 -1 -2 -2 -2 -2 -2 -2 -2
4 4 8 10 10 8 6 6 6 8 7 7 5 4 4 1 2 1 0 0 -0 -0 -1 -1 -1 -1 -1 -1 -1 -1 -1 -1 -1 -1 -1 -1 -1 -1 -1 -1 -1 -1 -2 -2 -2 -2 -2 -2 -2
5 6 8 8 8 8 6 5 6 7 6 6 4 5 3 2 1 0 0 -0 -0 -0 -0 -1 -1 -1 -1 -1 -1 -1 -1 -1 -1 -1 -1 -1 -1 -1 -1 -1 -1 -1 -2 -2 -2 -2 -2 -2 -2
4 5 7 7 8 8 6 6 6 5 7 3 4 5 5 2 0 0 0 0 -0 -0 -0 -0 -1 -1 -1 -1 -1 -1 -1 -1 -1 -1 -1 -1 -1 -1 -1 -1 -1 -1 -2 -2 -2 -2 -2 -2 -2
2 7 9 8 7 6 5 7 5 4 5 5 3 4 2 1 0 1 1 1 1 0 -0 -0 -0 -1 -1 -1 -1 -1 -1 -1 -1 -1 -1 -1 -1 -1 -2 -2 -2 -2 -1 -2 -2 -2 -2 -2 -2
4 7 7 5 5 6 5 5 5 5 5 5 5 2 1 1 2 3 2 2 1 1 0 -0 -1 -1 -1 -1 -1 -1 -1 -1 -1 -1 -2 -1 -2 -2 -1 -2 -2 -2 -2 -1 -1 -2 -2 -1 -1
4 7 5 5 4 4 5 5 4 5 6 5 6 4 3 2 2 4 3 2 1 1 0 -0 -1 -1 -1 -1 -1 -1 -1 -1 -1 -2 -2 -2 -2 -2 -1 -1 -1 -1 -1 -1 -1 -1 -1 -1 -1
6 4 4 4 4 4 5 4 5 4 5 4 4 4 4 2 2 4 3 2 2 1 0 -0 -1 -1 -1 -1 -1 -1 -0 -1 -1 -1 -2 -1 -1 -1 -1 -1 -1 -1 -1 -1 -2 -1 -2 -1 -2
5 5 4 4 4 4 4 5 5 5 3 3 4 4 4 3 3 3 3 2 2 1 0 -0 -1 -1 -1 -1 -1 -1 -1 -1 -1 -1 -2 -1 -1 -1 -1 -1 -1 -1 -1 -1 -1 -1 -1 -1 -1
4 4 4 4 4 4 5 5 5 4 3 4 4 4 4 3 3 3 3 3 2 2 2 0 -0 -0 -0 -0 -1 -1 -1 -1 -1 -1 -1 -2 -1 -1 -1 -1 -1 -1 -1 -1 -1 -1 -1 -0 -1
5 6 5 5 4 5 4 6 6 4 3 5 4 3 3 3 2 3 4 4 3 2 2 1 -0 -1 -0 -0 -0 -0 -1 -1 -1 -1 -2 -2 -1 -1 -1 -0 -0 -1 -2 -2 -2 -1 -1 -0 -1
6 6 8 5 5 4 5 8 5 4 4 5 6 5 5 4 2 3 3 4 3 2 2 1 1 0 -1 -0 -1 -0 -0 -0 -0 -1 -1 -2 -1 -2 -1 -0 -0 -1 -1 -1 -1 -0 0 0 0
7 9 8 7 5 5 6 7 5 4 4 5 6 6 6 5 4 3 4 4 3 2 1 1 0 1 -0 -0 -0 -0 -1 -0 -0 -1 -1 -1 -1 -1 -0 -0 -1 -1 -0 -0 -0 0 0 1 0
9 9 8 8 6 6 7 7 5 4 4 6 6 6 6 5 5 4 4 3 3 2 1 0 1 0 -0 0 -0 -0 -0 -0 -0 -0 -0 -1 -1 -1 -0 -0 -1 -1 -0 -0 -0 0 -0 1 1
7 8 9 7 6 7 7 7 6 4 4 5 5 5 6 6 5 5 4 3 3 2 2 1 1 0 -0 -0 1 1 1 1 0 -0 -1 -1 -1 -1 -0 -0 -0 -0 0 0 -0 1 1 1 0
7 9 8 7 6 7 7 7 6 5 5 5 5 5 5 4 5 5 4 3 3 3 2 2 1 -0 1 1 0 0 0 1 0 -0 -0 -0 -1 -1 -0 -0 -0 -0 0 0 1 1 1 1 0
8 8 8 8 7 6 7 9 7 6 5 5 5 4 4 4 4 4 4 3 3 3 3 3 2 -0 0 -0 0 -0 0 1 1 1 1 -0 -0 -0 -0 -0 -0 -0 0 1 1 0 1 2 1
9 6 7 8 9 11 7 12 8 7 6 6 5 5 4 3 3 3 3 3 3 4 3 2 2 1 -0 -0 0 -0 1 2 1 1 0 -0 -0 -0 -0 -0 -0 -0 0 1 0 0 1 1 2
8 6 7 8 9 9 9 11 9 6 7 6 5 4 4 3 3 3 2 2 3 3 3 2 1 1 0 -1 -0 1 1 1 1 0 -0 0 -0 -0 -0 -0 -0 0 0 0 0 0 1 1 2
6 7 7 8 9 13 10 10 10 8 7 6 5 4 4 3 3 2 2 2 1 1 1 1 1 1 0 0 0 -0 1 1 1 1 1 1 0 0 -0 -0 0 0 0 0 0 1 1 1 1
7 9 12 13 13 14 9 10 9 7 6 5 5 4 4 3 3 3 2 2 2 1 1 1 0 0 -0 0 1 1 0 1 1 1 1 1 1 1 -0 0 0 0 0 0 0 1 1 1 1
8 9 13 17 16 14 10 12 10 6 5 5 5 4 4 4 3 3 3 2 2 1 1 1 1 1 0 0 -0 -0 0 1 1 0 1 1 1 0 -1 -0 0 0 0 0 0 1 1 1 1
8 10 8 11 11 13 11 9 7 6 6 5 4 4 4 3 3 2 2 2 2 1 1 1 1 1 0 0 -0 0 0 0 1 0 0 1 0 0 0 0 0 0 0 0 0 1 1 1 1
7 6 11 11 15 16 13 12 12 8 7 6 5 5 4 3 3 2 2 2 1 1 1 0 0 1 0 0 0 0 0 0 0 0 1 0 0 0 0 0 0 0 0 0 0 1 1 1 1
9 9 9 9 11 16 17 13 7 7 6 6 5 5 4 3 3 3 2 2 1 1 1 1 1 1 1 0 0 0 0 0 0 0 0 1 0 0 1 1 1 1 1 0 1 1 1 1 1
7 8 9 15 13 11 12 12 6 6 5 5 5 4 3 3 3 3 2 2 2 1 1 1 1 1 0 0 0 0 0 0 0 1 0 0 1 0 0 0 1 1 1 1 1 1 1 1 2